DW3706 Weather Reports


time (UTC)temp
C
wind
direction
speed
KPH
gust
KPH
rain 1hr
cm
rain 24hr
cm
rain mn
cm
humidity
%
barometer
mb
20260507212011 20 208 3.2 17.7 0.00 0.53 0.41 29 1005.0
20260507211532 20 17 3.2 17.7 0.00 0.53 0.41 30 1005.0
20260507211010 20 131 1.6 8.0 0.00 0.53 0.41 30 1005.0
20260507210507 20 211 1.6 17.7 0.00 0.53 0.41 29 1005.0
20260507210010 20 102 3.2 17.7 0.00 0.53 0.41 29 1005.0
20260507205506 20 236 6.4 12.9 0.00 0.53 0.41 29 1004.8
20260507205006 20 253 1.6 22.5 0.00 0.53 0.41 29 1004.9
20260507204516 20 96 9.7 17.7 0.00 0.56 0.41 28 1004.9
20260507204006 20 285 1.6 19.3 0.00 0.56 0.41 28 1005.1
20260507203507 20 147 3.2 19.3 0.00 0.56 0.41 28 1005.0
20260507203021 20 351 3.2 14.5 0.00 0.56 0.41 28 1005.1
20260507202508 20 150 4.8 14.5 0.00 0.56 0.41 28 1005.0
20260507202007 20 5 4.8 12.9 0.00 0.56 0.41 29 1005.1
20260507201530 20 321 3.2 16.1 0.00 0.56 0.41 28 1005.1
20260507201008 20 31 3.2 16.1 0.00 0.56 0.41 27 1005.0
20260507200507 20 223 6.4 19.3 0.00 0.56 0.41 27 1005.0
20260507200015 20 233 6.4 19.3 0.00 0.56 0.41 27 1005.1
20260507195508 20 254 3.2 19.3 0.00 0.56 0.41 26 1005.1
20260507195007 20 294 6.4 19.3 0.00 0.56 0.41 27 1005.2
20260507194510 20 242 4.8 14.5 0.00 0.56 0.41 26 1005.3
20260507194009 20 208 3.2 12.9 0.00 0.56 0.41 26 1005.3
20260507193508 20 259 1.6 19.3 0.00 0.56 0.41 26 1005.3
20260507193026 20 289 3.2 19.3 0.00 0.56 0.41 27 1005.3
20260507192505 20 227 3.2 14.5 0.00 0.56 0.41 28 1005.4
20260507192009 20 69 4.8 17.7 0.00 0.56 0.41 29 1005.4
20260507191525 20 221 8.0 17.7 0.00 0.56 0.41 26 1005.4
20260507191010 20 219 1.6 16.1 0.00 0.56 0.41 25 1005.5
20260507190506 20 140 1.6 16.1 0.00 0.56 0.41 26 1005.5
20260507190022 20 67 1.6 20.9 0.00 0.56 0.41 27 1005.5
20260507185504 20 254 6.4 20.9 0.00 0.56 0.41 27 1005.5
20260507185006 20 177 3.2 16.1 0.00 0.56 0.41 29 1005.5
20260507184510 20 227 6.4 14.5 0.00 0.56 0.41 30 1005.5
20260507184005 20 229 3.2 16.1 0.00 0.56 0.41 30 1005.6
20260507183505 20 229 6.4 16.1 0.00 0.56 0.41 31 1005.6
20260507183023 20 239 8.0 14.5 0.00 0.56 0.41 31 1005.8
20260507182506 20 224 3.2 19.3 0.00 0.56 0.41 33 1005.7
20260507182005 20 210 6.4 19.3 0.00 0.56 0.41 32 1005.7
20260507181511 20 237 6.4 17.7 0.00 0.56 0.41 34 1005.9
20260507181008 20 220 1.6 19.3 0.00 0.56 0.41 32 1006.0
20260507180504 19 354 4.8 19.3 0.00 0.56 0.41 34 1005.9
20260507180005 20 182 4.8 17.7 0.00 0.56 0.41 32 1006.0
20260507175503 20 229 6.4 17.7 0.00 0.56 0.41 32 1005.9
20260507175006 20 252 1.6 8.0 0.00 0.56 0.41 35 1005.9
20260507174514 20 158 1.6 22.5 0.00 0.56 0.41 36 1005.8
20260507174004 19 241 11.3 22.5 0.00 0.56 0.41 36 1005.8
20260507173504 19 275 4.8 19.3 0.00 0.56 0.41 36 1005.8
20260507173016 19 275 4.8 19.3 0.00 0.56 0.41 37 1005.8
20260507172506 20 230 4.8 14.5 0.00 0.56 0.41 37 1005.9
20260507172006 19 340 3.2 20.9 0.00 0.56 0.41 39 1006.0
20260507171512 19 275 6.4 20.9 0.00 0.56 0.41 41 1006.0
20260507171009 18 256 4.8 19.3 0.00 0.56 0.41 41 1006.0
20260507170506 18 267 4.8 19.3 0.00 0.56 0.41 41 1006.0
20260507170030 18 234 3.2 8.0 0.00 0.56 0.41 44 1006.1
20260507165503 18 244 1.6 14.5 0.00 0.56 0.41 42 1006.1
20260507165004 18 242 1.6 12.9 0.00 0.56 0.41 44 1006.4
20260507164506 18 236 3.2 11.3 0.00 0.56 0.41 47 1006.4
20260507164004 18 216 3.2 14.5 0.00 0.56 0.41 45 1006.5
20260507163504 18 232 4.8 14.5 0.00 0.56 0.41 45 1006.5
20260507163014 18 226 3.2 16.1 0.00 0.56 0.41 47 1006.5
20260507162506 17 227 3.2 16.1 0.00 0.56 0.41 48 1006.7
20260507162007 17 215 8.0 11.3 0.00 0.56 0.41 46 1006.8
20260507161513 18 5 3.2 9.7 0.00 0.56 0.41 47 1006.8
20260507161004 18 229 3.2 8.0 0.00 0.56 0.41 47 1006.8
20260507160505 18 217 1.6 4.8 0.00 0.56 0.41 50 1006.9
20260507160012 17 288 0.0 12.9 0.00 0.56 0.41 49 1007.0
20260507155505 17 20 3.2 12.9 0.00 0.56 0.41 50 1007.0
20260507155006 17 235 1.6 11.3 0.00 0.56 0.41 48 1007.0
20260507154515 17 272 4.8 11.3 0.00 0.56 0.41 47 1007.1
20260507154009 17 27 3.2 14.5 0.00 0.56 0.41 47 1007.1
20260507153506 17 244 1.6 14.5 0.00 0.56 0.41 49 1007.2
20260507153011 18 233 6.4 14.5 0.00 0.56 0.41 49 1007.2
20260507152504 17 230 4.8 14.5 0.00 0.56 0.41 48 1007.2
20260507152008 17 240 8.0 16.1 0.00 0.56 0.41 47 1007.3
20260507151519 17 236 4.8 16.1 0.00 0.56 0.41 49 1007.3
20260507151008 17 253 1.6 14.5 0.00 0.56 0.41 48 1007.3
20260507150507 17 233 8.0 14.5 0.00 0.56 0.41 47 1007.4
20260507150015 17 231 6.4 14.5 0.00 0.56 0.41 47 1007.4
20260507145506 17 236 3.2 14.5 0.00 0.56 0.41 48 1007.5
20260507145006 17 238 4.8 16.1 0.00 0.56 0.41 50 1007.5
20260507144518 17 243 8.0 16.1 0.00 0.56 0.41 48 1007.6
20260507144007 17 265 1.6 12.9 0.00 0.56 0.41 50 1007.7
20260507143507 17 229 3.2 12.9 0.00 0.56 0.41 51 1007.7
20260507143016 16 346 3.2 9.7 0.00 0.56 0.41 48 1007.6
20260507142507 16 257 3.2 8.0 0.00 0.56 0.41 50 1007.6
20260507142008 16 215 1.6 6.4 0.00 0.56 0.41 50 1007.7
20260507141511 16 318 1.6 9.7 0.00 0.56 0.41 50 1007.8
20260507141007 16 342 1.6 11.3 0.00 0.56 0.41 51 1007.7
20260507140506 16 240 1.6 9.7 0.00 0.56 0.41 52 1007.7
20260507140019 16 47 1.6 9.7 0.00 0.56 0.41 52 1007.7
20260507135506 16 69 1.6 9.7 0.00 0.56 0.41 54 1007.8
20260507135006 15 356 3.2 11.3 0.00 0.56 0.41 53 1007.7
20260507134519 15 319 3.2 11.3 0.00 0.56 0.41 55 1007.8
20260507134007 15 331 3.2 11.3 0.00 0.56 0.41 59 1007.8
20260507133509 15 265 3.2 11.3 0.00 0.56 0.41 62 1007.8
20260507133016 14 349 1.6 11.3 0.00 0.56 0.41 62 1007.7
20260507132507 14 358 3.2 11.3 0.00 0.56 0.41 62 1007.8
20260507132007 14 213 1.6 11.3 0.00 0.56 0.41 66 1008.0
20260507131518 14 86 3.2 11.3 0.00 0.56 0.41 66 1007.9
20260507131007 13 229 1.6 11.3 0.00 0.56 0.41 71 1007.9
20260507130508 13 311 1.6 11.3 0.00 0.56 0.41 73 1007.9
20260507130019 13 79 1.6 9.7 0.00 0.56 0.41 73 1008.0
20260507125512 12 150 3.2 9.7 0.00 0.56 0.41 76 1008.1
20260507125005 12 217 1.6 6.4 0.00 0.56 0.41 78 1008.1
20260507124516 12 254 1.6 11.3 0.00 0.56 0.41 81 1008.2
20260507124007 11 300 3.2 11.3 0.00 0.56 0.41 82 1008.2
20260507123509 11 148 0.0 4.8 0.00 0.56 0.41 83 1008.1
20260507123023 11 248 0.0 8.0 0.00 0.56 0.41 84 1008.3
20260507122507 10 175 0.0 8.0 0.00 0.56 0.41 85 1008.1
20260507122013 10 192 0.0 8.0 0.00 0.56 0.41 85 1008.0
20260507121518 10 358 0.0 8.0 0.00 0.56 0.41 85 1007.9
20260507121007 10 356 0.0 8.0 0.00 0.56 0.41 85 1008.1
20260507120508 10 13 3.2 8.0 0.00 0.56 0.41 85 1007.8
20260507120016 10 278 1.6 6.4 0.00 0.56 0.41 85 1007.9
20260507115506 10 31 1.6 3.2 0.00 0.56 0.41 85 1007.9
20260507115012 10 242 1.6 3.2 0.00 0.56 0.41 85 1008.0
20260507114520 10 108 0.0 3.2 0.00 0.56 0.41 85 1007.9
20260507114011 10 272 0.0 3.2 0.00 0.56 0.41 85 1007.9
20260507113507 10 214 0.0 3.2 0.00 0.56 0.41 86 1007.7
20260507113025 10 317 0.0 6.4 0.00 0.56 0.41 86 1007.7
20260507112508 10 282 0.0 6.4 0.03 0.56 0.41 86 1007.6
20260507112008 10 9 0.0 3.2 0.03 0.56 0.41 86 1007.6
20260507111522 10 277 0.0 4.8 0.03 0.56 0.41 86 1007.8
20260507111007 10 236 0.0 4.8 0.03 0.56 0.41 86 1007.8
20260507110509 9 261 0.0 3.2 0.03 0.56 0.41 87 1007.5
20260507110016 9 339 0.0 3.2 0.05 0.56 0.41 87 1007.5
20260507105506 9 237 0.0 3.2 0.05 0.56 0.41 87 1007.5
20260507105008 9 286 0.0 3.2 0.05 0.56 0.41 87 1007.5
20260507104522 9 239 0.0 3.2 0.08 0.56 0.41 87 1007.8
20260507104010 9 239 0.0 3.2 0.08 0.56 0.41 87 1008.0
20260507103509 9 232 0.0 3.2 0.10 0.56 0.41 87 1008.3
20260507103020 9 232 0.0 0.0 0.10 0.56 0.41 87 1007.9
20260507102506 9 313 0.0 0.0 0.08 0.53 0.38 87 1007.5
20260507102009 9 313 0.0 3.2 0.10 0.53 0.38 87 1007.5
20260507101522 9 232 0.0 3.2 0.10 0.53 0.38 86 1007.8
20260507101009 9 238 0.0 8.0 0.13 0.53 0.38 86 1007.8
20260507100507 10 277 0.0 8.0 0.15 0.53 0.38 86 1007.6
20260507100021 10 284 0.0 4.8 0.15 0.51 0.36 86 1007.4
20260507095510 10 348 1.6 6.4 0.18 0.51 0.36 87 1007.2
20260507095007 10 63 0.0 6.4 0.23 0.51 0.36 86 1007.4
20260507094506 10 5 1.6 6.4 0.23 0.48 0.33 86 1007.3
20260507094003 10 30 0.0 4.8 0.25 0.48 0.33 86 1007.6
20260507093506 10 209 1.6 12.9 0.23 0.46 0.30 86 1007.5
20260507093010 10 223 1.6 12.9 0.23 0.46 0.30 86 1007.2
20260507092504 10 346 3.2 9.7 0.23 0.46 0.30 86 1006.9
20260507092002 10 6 1.6 8.0 0.23 0.43 0.28 86 1006.8
20260507091504 10 30 1.6 8.0 0.25 0.43 0.28 86 1007.1
20260507091003 10 322 1.6 8.0 0.23 0.41 0.25 85 1007.2
20260507090504 10 246 1.6 14.5 0.20 0.38 0.23 85 1007.4
20260507090010 10 14 3.2 14.5 0.20 0.36 0.20 84 1007.3
20260507085504 11 211 1.6 6.4 0.18 0.33 0.18 84 1007.4
20260507085007 11 250 0.0 6.4 0.13 0.28 0.13 84 1007.3
20260507084529 11 144 0.0 8.0 0.10 0.25 0.10 84 1007.4
20260507084007 11 37 0.0 8.0 0.08 0.23 0.08 84 1007.1
20260507083511 11 9 0.0 6.4 0.08 0.23 0.08 85 1006.8
20260507083009 11 267 1.6 6.4 0.08 0.23 0.08 85 1006.8
20260507082507 12 347 0.0 6.4 0.08 0.23 0.08 85 1006.8
20260507082009 12 336 1.6 8.0 0.05 0.20 0.05 85 1006.7
20260507081505 12 346 0.0 8.0 0.03 0.18 0.03 84 1007.0
20260507081003 12 22 1.6 4.8 0.03 0.18 0.03 83 1007.2
20260507080504 12 340 0.0 4.8 0.03 0.18 0.03 83 1007.2
20260507080009 12 350 0.0 8.0 0.00 0.15 0.00 82 1006.9
20260507075503 12 56 0.0 11.3 0.00 0.15 0.00 81 1006.8
20260507075007 12 42 1.6 12.9 0.00 0.15 0.00 80 1006.7
20260507074514 12 48 3.2 12.9 0.00 0.15 0.00 79 1006.9
20260507074004 12 11 1.6 9.7 0.00 0.15 0.00 78 1006.6
20260507073508 12 352 1.6 11.3 0.00 0.15 0.00 78 1006.5
20260507073019 12 284 3.2 11.3 0.00 0.15 0.00 77 1006.2
20260507072507 12 346 1.6 11.3 0.00 0.15 0.00 77 1006.1
20260507072003 12 3 4.8 11.3 0.00 0.15 0.00 79 1006.0
20260507071520 12 3 3.2 8.0 0.00 0.15 0.00 80 1006.1
20260507071008 13 352 0.0 9.7 0.00 0.15 0.00 81 1006.4
20260507070504 13 350 1.6 11.3 0.00 0.15 0.00 81 1006.1
20260507070010 13 354 1.6 11.3 0.00 0.15 0.00 81 1006.0
20260507065506 13 291 1.6 11.3 0.00 0.15 0.00 82 1006.2
20260507065004 13 178 3.2 11.3 0.00 0.15 0.00 83 1006.2
20260507064509 13 326 3.2 14.5 0.00 0.15 0.00 84 1006.2
20260507064004 13 356 3.2 14.5 0.00 0.15 0.00 83 1006.2
20260507063508 13 25 1.6 9.7 0.00 0.15 0.00 83 1006.4
20260507063005 13 360 1.6 12.9 0.00 0.15 0.00 83 1006.2
20260507062503 13 102 1.6 12.9 0.00 0.15 0.00 83 1005.9
20260507062011 13 24 4.8 9.7 0.00 0.15 0.00 83 1006.0
20260507061522 13 350 0.0 8.0 0.00 0.15 0.00 84 1006.0
20260507061004 14 8 1.6 8.0 0.00 0.15 0.00 84 1006.1
20260507060506 14 357 1.6 8.0 0.00 0.15 0.00 84 1006.1
20260507060021 14 13 1.6 11.3 0.00 0.15 0.00 84 1006.1
20260507055504 14 178 1.6 11.3 0.00 0.15 0.00 84 1006.4
20260507055004 14 354 3.2 9.7 0.00 0.15 0.00 85 1006.2
20260507054508 15 5 3.2 9.7 0.00 0.15 0.00 86 1006.6
20260507054010 15 228 0.0 4.8 0.00 0.15 0.00 86 1006.5
20260507053506 15 228 1.6 4.8 0.00 0.15 0.00 86 1006.5
20260507053013 15 9 0.0 4.8 0.00 0.15 0.00 86 1006.5
20260507052507 15 277 1.6 4.8 0.00 0.15 0.00 87 1006.3
20260507052007 15 286 0.0 6.4 0.00 0.15 0.00 87 1006.2
20260507051512 15 259 1.6 11.3 0.00 0.15 0.00 87 1006.1
20260507051007 15 321 3.2 8.0 0.00 0.15 0.00 88 1006.3
20260507050506 15 206 1.6 12.9 0.00 0.15 0.00 88 1006.3
20260507050024 15 190 4.8 11.3 0.00 0.15 0.00 89 1006.4
20260507045507 15 242 3.2 11.3 0.00 0.15 0.00 89 1006.2
20260507045007 15 233 6.4 11.3 0.00 0.15 0.00 90 1006.2
20260507044505 15 231 3.2 6.4 0.00 0.15 0.00 90 1006.1
20260507044005 15 214 1.6 8.0 0.00 0.15 0.00 91 1006.0
20260507043506 15 246 3.2 9.7 0.00 0.15 0.00 91 1006.1
20260507043011 15 213 4.8 9.7 0.00 0.15 0.00 91 1006.0
20260507042507 15 248 1.6 6.4 0.00 0.15 0.00 91 1006.0
20260507042006 15 223 3.2 12.9 0.00 0.15 0.00 91 1006.0
20260507041516 15 265 3.2 14.5 0.00 0.15 0.00 91 1006.0
20260507041010 15 223 4.8 16.1 0.00 0.15 0.00 91 1006.2
20260507040506 15 217 4.8 16.1 0.00 0.15 0.00 91 1006.2
20260507040018 15 234 4.8 12.9 0.00 0.15 0.00 91 1006.4
20260507035508 15 239 4.8 16.1 0.00 0.15 0.15 91 1006.2
20260507035004 15 218 6.4 16.1 0.00 0.15 0.15 91 1006.4
20260507034513 15 242 6.4 14.5 0.00 0.15 0.15 91 1006.2
20260507034008 15 242 6.4 14.5 0.00 0.15 0.15 91 1006.2
20260507033510 15 240 4.8 17.7 0.00 0.15 0.15 91 1006.2
20260507033010 14 233 8.0 17.7 0.00 0.15 0.15 91 1006.1
20260507032507 14 250 4.8 16.1 0.00 0.15 0.15 91 1006.1
20260507032007 14 279 4.8 16.1 0.00 0.15 0.15 91 1006.0
20260507031507 14 203 8.0 16.1 0.00 0.15 0.15 91 1006.0
20260507031009 14 259 4.8 16.1 0.00 0.15 0.15 91 1005.8
20260507030509 14 228 6.4 16.1 0.00 0.15 0.15 91 1005.7
20260507030020 14 236 6.4 16.1 0.00 0.15 0.15 91 1005.6
20260507025509 14 212 4.8 14.5 0.00 0.15 0.15 91 1005.6
20260507025008 14 229 3.2 12.9 0.00 0.15 0.15 91 1005.8
20260507024522 14 248 6.4 16.1 0.00 0.15 0.15 91 1006.0
20260507024012 14 213 4.8 16.1 0.00 0.15 0.15 91 1005.9
20260507023508 14 261 6.4 16.1 0.00 0.15 0.15 91 1005.8
20260507023020 14 247 8.0 16.1 0.00 0.15 0.15 91 1005.8
20260507022511 14 249 11.3 16.1 0.00 0.15 0.15 91 1005.8
20260507022007 14 254 4.8 14.5 0.00 0.15 0.15 91 1005.8
20260507021514 14 263 8.0 17.7 0.00 0.15 0.15 91 1005.9
20260507021007 13 259 8.0 17.7 0.00 0.15 0.15 91 1005.9
20260507020508 13 269 6.4 17.7 0.00 0.15 0.15 91 1005.8
20260507020016 13 219 3.2 17.7 0.00 0.15 0.15 91 1005.9
20260507015506 13 246 4.8 16.1 0.00 0.15 0.15 91 1005.8
20260507015010 13 214 3.2 17.7 0.00 0.15 0.15 91 1005.9
20260507014511 13 249 6.4 16.1 0.00 0.15 0.15 91 1006.1
20260507014009 13 232 6.4 17.7 0.00 0.15 0.15 91 1006.0
20260507013507 13 232 8.0 19.3 0.00 0.15 0.15 91 1006.1
20260507013026 13 246 6.4 19.3 0.00 0.15 0.15 91 1006.1
20260507012506 13 252 8.0 20.9 0.00 0.15 0.15 90 1006.3
20260507012012 13 233 8.0 20.9 0.00 0.15 0.15 90 1006.2
20260507011528 13 228 8.0 19.3 0.00 0.15 0.15 90 1006.3
20260507011004 13 252 11.3 20.9 0.00 0.15 0.15 90 1006.4
20260507010511 13 258 9.7 20.9 0.00 0.15 0.15 90 1006.4
20260507010023 13 237 9.7 22.5 0.03 0.15 0.15 90 1006.4
20260507005504 13 250 11.3 22.5 0.03 0.15 0.15 90 1006.4
20260507005006 13 261 8.0 22.5 0.03 0.15 0.15 90 1006.4
20260507004520 13 233 4.8 17.7 0.03 0.15 0.15 90 1006.3
20260507004007 13 254 4.8 20.9 0.03 0.15 0.15 90 1006.3
20260507003510 13 260 8.0 20.9 0.03 0.15 0.15 90 1006.4
20260507003019 13 272 8.0 24.1 0.05 0.15 0.15 90 1006.3
20260507002503 13 227 11.3 24.1 0.05 0.15 0.15 90 1006.2
20260507002003 13 234 9.7 20.9 0.05 0.15 0.15 90 1006.2
20260507001507 13 228 6.4 20.9 0.05 0.15 0.15 90 1006.1
20260507001003 13 250 6.4 20.9 0.05 0.15 0.15 90 1006.1
20260507000506 13 236 9.7 20.9 0.05 0.15 0.15 90 1006.0
20260507000012 13 223 9.7 17.7 0.03 0.13 0.13 90 1006.1
20260506235509 13 242 9.7 22.5 0.03 0.13 0.13 90 1006.1
20260506235007 13 199 6.4 22.5 0.03 0.13 0.13 90 1006.0
20260506234512 13 259 9.7 22.5 0.03 0.13 0.13 89 1006.0
20260506234011 13 236 11.3 22.5 0.03 0.13 0.13 89 1005.9
20260506233509 14 243 11.3 22.5 0.03 0.13 0.13 89 1005.9
20260506233009 14 215 11.3 20.9 0.00 0.10 0.10 89 1006.0
20260506232506 14 245 9.7 20.9 0.00 0.10 0.10 89 1005.9
20260506232010 14 247 9.7 20.9 0.03 0.10 0.10 89 1005.9
20260506231507 14 241 9.7 20.9 0.03 0.10 0.10 89 1006.2
20260506231004 14 250 8.0 19.3 0.03 0.10 0.10 89 1006.4
20260506230504 14 240 12.9 19.3 0.03 0.10 0.10 89 1006.4
20260506230013 14 217 9.7 19.3 0.03 0.10 0.10 89 1006.2
20260506225504 14 238 9.7 19.3 0.03 0.10 0.10 89 1006.1
20260506225006 14 257 9.7 22.5 0.05 0.10 0.10 89 1006.2
20260506224515 14 246 11.3 22.5 0.05 0.10 0.10 89 1006.3
20260506224008 14 188 8.0 22.5 0.05 0.10 0.10 89 1006.5
20260506223507 14 220 12.9 22.5 0.05 0.10 0.10 89 1006.6
20260506223016 14 261 6.4 17.7 0.08 0.10 0.10 89 1006.6
20260506222510 15 199 8.0 17.7 0.08 0.10 0.10 88 1006.7
20260506222005 15 263 4.8 20.9 0.05 0.08 0.08 88 1006.7
20260506221516 15 213 6.4 20.9 0.05 0.08 0.08 88 1006.8
20260506221009 15 256 11.3 20.9 0.05 0.08 0.08 87 1006.9
20260506220504 15 256 6.4 20.9 0.05 0.08 0.08 87 1006.8
20260506220008 15 223 6.4 20.9 0.05 0.08 0.08 88 1006.9
20260506215507 15 186 6.4 17.7 0.05 0.08 0.08 87 1007.1
20260506215009 15 198 9.7 19.3 0.03 0.05 0.05 87 1007.1
20260506214510 15 209 6.4 20.9 0.05 0.05 0.05 87 1007.1
20260506214007 15 206 8.0 20.9 0.05 0.05 0.05 86 1007.1
20260506213510 15 229 8.0 20.9 0.05 0.05 0.05 86 1007.0
20260506213025 15 231 6.4 24.1 0.03 0.03 0.03 86 1007.0
20260506212507 15 231 6.4 25.7 0.03 0.03 0.03 86 1007.1